When you browse on this site, cookies collect data to enhance your experience and personalize the content and advertising you see.
Visit our Privacy Policy to learn more. By continuing to use the site, you agree to this use of cookies and data.

Meteo pe oră la Parakou

Astăzi, 9 Iulie, Joi

Timp Temperatura Precipitaţii Vânt Presiune Umiditate
00:00 +24°C° 0 mm 2 m/s 727 mmHg 97%
01:00 +24°C° 0 mm 2 m/s 727 mmHg 97%
02:00 +24°C° 0 mm 2 m/s 727 mmHg 97%
03:00 +24°C° 0 mm 2 m/s 727 mmHg 97%
04:00 +24°C° 0 mm 2 m/s 727 mmHg 96%
05:00 +24°C° 0 mm 2 m/s 727 mmHg 96%
06:00 +24°C° 0 mm 3 m/s 727 mmHg 95%
07:00 +24°C° 0 mm 3 m/s 728 mmHg 93%
08:00 +25°C° 0 mm 3 m/s 728 mmHg 91%
09:00 +25°C° 0 mm 3 m/s 728 mmHg 89%
10:00 +26°C° 0.2 mm 2 m/s 728 mmHg 86%
11:00 +27°C° 0.2 mm 2 m/s 728 mmHg 83%
12:00 +28°C° 0.2 mm 2 m/s 728 mmHg 79%
13:00 +28°C° 0.2 mm 2 m/s 727 mmHg 76%
14:00 +29°C° 0.2 mm 2 m/s 727 mmHg 73%
15:00 +30°C° 0.2 mm 2 m/s 726 mmHg 71%
16:00 +29°C° 1 mm 2 m/s 726 mmHg 76%
17:00 +28°C° 1 mm 2 m/s 726 mmHg 82%
18:00 +27°C° 1 mm 1 m/s 726 mmHg 88%
19:00 +26°C° 1.3 mm 2 m/s 727 mmHg 90%
20:00 +26°C° 1.3 mm 2 m/s 727 mmHg 91%
21:00 +25°C° 1.3 mm 2 m/s 728 mmHg 92%
22:00 +25°C° 0.3 mm 2 m/s 728 mmHg 93%
23:00 +24°C° 0.3 mm 2 m/s 728 mmHg 95%

Mâine, 10 Iulie, Vineri

Timp Temperatura Precipitaţii Vânt Presiune Umiditate
00:00 +24°C° 0.3 mm 2 m/s 728 mmHg 96%
01:00 +24°C° 0 mm 2 m/s 728 mmHg 96%
02:00 +24°C° 0 mm 2 m/s 728 mmHg 96%
03:00 +24°C° 0 mm 1 m/s 728 mmHg 96%
04:00 +24°C° 0 mm 1 m/s 728 mmHg 97%
05:00 +24°C° 0 mm 2 m/s 728 mmHg 97%
06:00 +23°C° 0 mm 2 m/s 728 mmHg 97%
07:00 +24°C° 0 mm 2 m/s 728 mmHg 95%
08:00 +25°C° 0 mm 2 m/s 728 mmHg 92%
09:00 +25°C° 0 mm 2 m/s 728 mmHg 90%
10:00 +26°C° 0.1 mm 2 m/s 729 mmHg 87%
11:00 +26°C° 0.1 mm 2 m/s 729 mmHg 85%
12:00 +27°C° 0.1 mm 2 m/s 729 mmHg 82%
13:00 +28°C° 0.4 mm 2 m/s 728 mmHg 80%
14:00 +28°C° 0.4 mm 2 m/s 727 mmHg 78%
15:00 +29°C° 0.4 mm 2 m/s 727 mmHg 76%
16:00 +28°C° 0.8 mm 2 m/s 727 mmHg 82%
17:00 +27°C° 0.8 mm 2 m/s 726 mmHg 87%
18:00 +25°C° 0.8 mm 2 m/s 726 mmHg 93%
19:00 +25°C° 0 mm 2 m/s 727 mmHg 94%
20:00 +24°C° 0 mm 2 m/s 727 mmHg 95%
21:00 +24°C° 0 mm 2 m/s 728 mmHg 96%
22:00 +24°C° 0 mm 2 m/s 728 mmHg 97%
23:00 +24°C° 0 mm 2 m/s 728 mmHg 97%

Poimâine, 11 Iulie, Sâmbătă

Timp Temperatura Precipitaţii Vânt Presiune Umiditate
00:00 +23°C° 0 mm 2 m/s 728 mmHg 98%
01:00 +23°C° 0 mm 1 m/s 728 mmHg 98%
02:00 +23°C° 0 mm 1 m/s 728 mmHg 98%
03:00 +23°C° 0 mm 1 m/s 727 mmHg 98%
04:00 +23°C° 0 mm 1 m/s 728 mmHg 98%
05:00 +23°C° 0 mm 2 m/s 728 mmHg 97%
06:00 +23°C° 0 mm 2 m/s 729 mmHg 96%
07:00 +23°C° 1.2 mm 2 m/s 729 mmHg 96%
08:00 +23°C° 1.2 mm 2 m/s 729 mmHg 96%
09:00 +23°C° 1.2 mm 2 m/s 729 mmHg 96%
10:00 +24°C° 0.2 mm 2 m/s 729 mmHg 94%
11:00 +25°C° 0.2 mm 2 m/s 729 mmHg 91%
12:00 +25°C° 0.2 mm 2 m/s 729 mmHg 89%
13:00 +26°C° 0.6 mm 2 m/s 728 mmHg 88%
14:00 +26°C° 0.6 mm 1 m/s 728 mmHg 88%
15:00 +26°C° 0.6 mm 1 m/s 727 mmHg 87%
16:00 +26°C° 0.5 mm 1 m/s 727 mmHg 90%
17:00 +25°C° 0.5 mm 1 m/s 727 mmHg 92%
18:00 +24°C° 0.5 mm 1 m/s 727 mmHg 95%
19:00 +24°C° 0 mm 2 m/s 728 mmHg 95%
20:00 +24°C° 0 mm 2 m/s 728 mmHg 96%
21:00 +24°C° 0 mm 2 m/s 728 mmHg 97%
22:00 +23°C° 0 mm 2 m/s 728 mmHg 97%
23:00 +23°C° 0 mm 2 m/s 728 mmHg 98%

12 Iulie, Duminică

Timp Temperatura Precipitaţii Vânt Presiune Umiditate
00:00 +23°C° 0 mm 1 m/s 728 mmHg 98%
01:00 +23°C° 0 mm 1 m/s 728 mmHg 98%
02:00 +22°C° 0 mm 1 m/s 728 mmHg 98%
03:00 +22°C° 0 mm 1 m/s 728 mmHg 98%
04:00 +22°C° 0 mm 1 m/s 728 mmHg 98%
05:00 +23°C° 0 mm 1 m/s 728 mmHg 97%
06:00 +23°C° 0 mm 1 m/s 729 mmHg 97%
07:00 +24°C° 0 mm 1 m/s 729 mmHg 94%
08:00 +24°C° 0 mm 1 m/s 729 mmHg 91%
09:00 +25°C° 0 mm 2 m/s 730 mmHg 88%
10:00 +27°C° 0.1 mm 2 m/s 729 mmHg 82%
11:00 +28°C° 0.1 mm 1 m/s 729 mmHg 76%
12:00 +30°C° 0.1 mm 1 m/s 729 mmHg 70%
13:00 +29°C° 0.3 mm 1 m/s 728 mmHg 70%
14:00 +29°C° 0.3 mm 1 m/s 727 mmHg 71%
15:00 +29°C° 0.3 mm 1 m/s 727 mmHg 72%
16:00 +29°C° 0.1 mm 1 m/s 727 mmHg 75%
17:00 +28°C° 0.1 mm 1 m/s 727 mmHg 79%
18:00 +27°C° 0.1 mm 1 m/s 727 mmHg 82%
19:00 +26°C° 0.1 mm 1 m/s 727 mmHg 86%
20:00 +26°C° 0.1 mm 2 m/s 728 mmHg 89%
21:00 +25°C° 0.1 mm 2 m/s 728 mmHg 93%
22:00 +24°C° 0 mm 2 m/s 728 mmHg 93%
23:00 +24°C° 0 mm 2 m/s 728 mmHg 94%

13 Iulie, Luni

Timp Temperatura Precipitaţii Vânt Presiune Umiditate
00:00 +24°C° 0 mm 2 m/s 728 mmHg 94%
01:00 +24°C° 0 mm 2 m/s 728 mmHg 95%
02:00 +23°C° 0 mm 2 m/s 727 mmHg 96%
03:00 +23°C° 0 mm 2 m/s 727 mmHg 96%
04:00 +23°C° 0.3 mm 2 m/s 727 mmHg 96%
05:00 +23°C° 0.3 mm 2 m/s 728 mmHg 95%
06:00 +24°C° 0.3 mm 2 m/s 728 mmHg 95%
07:00 +24°C° 0.2 mm 2 m/s 728 mmHg 95%
08:00 +24°C° 0.2 mm 2 m/s 729 mmHg 95%
09:00 +24°C° 0.2 mm 2 m/s 729 mmHg 95%
10:00 +24°C° 0 mm 2 m/s 729 mmHg 93%
11:00 +25°C° 0 mm 2 m/s 728 mmHg 91%
12:00 +25°C° 0 mm 2 m/s 728 mmHg 89%
13:00 +26°C° 0 mm 2 m/s 727 mmHg 87%
14:00 +26°C° 0 mm 2 m/s 727 mmHg 86%
15:00 +26°C° 0 mm 2 m/s 726 mmHg 84%
16:00 +26°C° 0.2 mm 2 m/s 726 mmHg 86%
17:00 +26°C° 0.2 mm 2 m/s 726 mmHg 89%
18:00 +25°C° 0.2 mm 1 m/s 726 mmHg 91%
19:00 +25°C° 0.8 mm 1 m/s 727 mmHg 93%
20:00 +24°C° 0.8 mm 1 m/s 727 mmHg 95%
21:00 +24°C° 0.8 mm 1 m/s 728 mmHg 97%
22:00 +23°C° 0.1 mm 1 m/s 728 mmHg 97%
23:00 +23°C° 0.1 mm 1 m/s 727 mmHg 97%

14 Iulie, Marţi

Timp Temperatura Precipitaţii Vânt Presiune Umiditate
00:00 +23°C° 0.1 mm 1 m/s 727 mmHg 97%
01:00 +23°C° 0 mm 1 m/s 727 mmHg 97%
02:00 +23°C° 0 mm 1 m/s 727 mmHg 98%
03:00 +23°C° 0 mm 1 m/s 727 mmHg 98%
04:00 +23°C° 0 mm 2 m/s 727 mmHg 97%
05:00 +23°C° 0 mm 2 m/s 727 mmHg 97%
06:00 +23°C° 0 mm 2 m/s 728 mmHg 97%
07:00 +24°C° 0 mm 2 m/s 728 mmHg 94%
08:00 +24°C° 0 mm 3 m/s 728 mmHg 92%
09:00 +25°C° 0 mm 3 m/s 729 mmHg 89%
10:00 +26°C° 0.1 mm 3 m/s 728 mmHg 85%
11:00 +27°C° 0.1 mm 3 m/s 728 mmHg 80%
12:00 +28°C° 0.1 mm 3 m/s 728 mmHg 75%
13:00 +28°C° 0.5 mm 3 m/s 727 mmHg 75%
14:00 +29°C° 0.5 mm 3 m/s 726 mmHg 74%
15:00 +29°C° 0.5 mm 3 m/s 726 mmHg 73%
16:00 +28°C° 0.1 mm 3 m/s 726 mmHg 77%
17:00 +27°C° 0.1 mm 2 m/s 726 mmHg 82%
18:00 +26°C° 0.1 mm 2 m/s 726 mmHg 86%
19:00 +25°C° 0 mm 2 m/s 726 mmHg 89%
20:00 +25°C° 0 mm 2 m/s 727 mmHg 92%
21:00 +24°C° 0 mm 1 m/s 727 mmHg 95%
22:00 +24°C° 0 mm 2 m/s 727 mmHg 94%
23:00 +24°C° 0 mm 2 m/s 727 mmHg 94%
Arată mai mult